Voltar ao catálogo

FENGYUN 1C DEB

AtivoPO
NORAD 31990·DEBRIS·🇨🇳 China

Lançado May 10, 1999 de Taiyuan Satellite Launch Center

Loading…

Próximas Passagens (próximas 24 horas)

TLE

EnvelhecendoSource: Space-Track

Época: Sep 10, 2026, 06:17 UTC

1 31990U 99025CPT 26253.26207241  .00000134  00000-0  19666-3 0  9998
2 31990  99.1476 262.2326 0259155 208.9923 214.9659 13.57326042664558

Acompanhe FENGYUN 1C DEB em tempo real com AllMySat

Download on the App Store